ムーニエ-デュプイ彗星

C/1997 J2 ( Meunier-Dupouy )

English version
Home page
Updated on November 20, 1999

---------------------------------------------------------------------

・ プロフィール

発見日 1997年5月7日, 8日
発見光度 14.0等, 15.5等
発見者 Michel Meunier (Arbonne la Foret), Philippe Dupouy, J. F. Lahitte (Observatoire de Dax)

・ 写真集

・ 軌道要素

   The following improved orbital elements by Kenji Muraoka, are
  from 1353 observations 1997 May 5 to 1999 Aug. 16, perturbations
  by 8 Planets, Moon and 3 minor planets were taken into account.
   The mean residual is +/- 0.69 arc seconds.

      Epoch  =  1998 Mar.  8.0  TT        JDT = 2450880.5
          T  =  1998 Mar. 10.44247       +/- 0.00044 (m.e.) TT
       Peri. =  122.67413                +/- 0.00006
       Node  =  148.84465                +/- 0.00004   (2000.0)
       Incl. =   91.27334                +/- 0.00005
          q  =    3.0511376              +/- 0.0000022 AU
          e  =    1.0006137              +/- 0.0000058
        1/a  =   -0.0002012              +/- 0.0000019 1/AU
  orig. 1/a  =   +0.000040
  fut.  1/a  =   -0.000002

・ 星図

・ 光度変化

        m1 = 3.7 + 5 logΔ + 10.0 log r  [   ,300]  (              〜1999年 1月 4日)
        m1 = 5.5 + 5 logΔ + 10.0 log r  [300,   ]  (1999年 1月 4日〜              )

---------------------------------------------------------------------

軌道要素は村岡健治氏の計算によるものです。
星図は StellaNavigator Ver.2.0 for Windows (アストロアーツ 編著 / アスキー出版局刊) で作成したものです。
光度グラフはComet for Windowsで作成したものです。

---------------------------------------------------------------------

Copyright(C) Seiichi Yoshida (comet@aerith.net). All rights reserved.